GOKTURK 1A

Last updated on Wed Sep 17 2025 00:02:31 GMT+0000 (Coordinated Universal Time)

1 41875U 16073A 25259.63071576 .00000383 00000+0 84298-4 0 9998 2 41875 98.1485 153.1374 0001490 83.5379 276.5992 14.62776292468830
UTC large
Height (km)
Speed (km/s)
/
Latitude / Longitude
Inclination (degrees)
Orbital Period (minutes)
Azimuth
Elevation
Range (km)
Doppler Factor

Next 0 passes for location: London (51.5072 / 0.1276)

Sorry there are no passes over London.